Powrót do katalogu

FENGYUN 1C DEB

LostSSO
NORAD 32408·DEBRIS·🇨🇳 China

Wystrzelony May 10, 1999 z Taiyuan Satellite Launch Center

Loading…

Następne Przeloty (najbliższe 24 godziny)

TLE

NieaktualneSource: Space-Track

Epoka: May 25, 2015, 04:00 UTC

1 32408U 99025CZU 15145.16706927  .00008645  00000-0  14067-2 0  9999
2 32408 098.2781 119.6018 0003379 286.8460 073.2375 14.71292071415153

Śledź FENGYUN 1C DEB w czasie rzeczywistym z AllMySat

Download on the App Store